User: anonymous   Login
Location: Darlington Observatory
(36.4817°N, 105.8156°W)
Time: 07:42:54
(UTC-07:00)
Language:

Cosmos 2278 Rocket - Orbit

View from above orbital plane
View from above orbital plane
View from above satellite
View from above satellite

Ground track
Ground track

The orbit data is extracted from the following two-line orbital elements,

1 23088U 94023B   15030.88877375  .00000322  00000-0  19224-3 0  1294
2 23088 071.0010 304.4395 0004594 314.5438 110.9296 14.14599398 72752
Epoch (UTC): 30 January 2015 21:19:50
Eccentricity: 0.0004594
inclination: 71.0010°
perigee height: 840 km
apogee height: 847 km
right ascension of ascending node: 304.4395°
argument of perigee: 314.5438°
revolutions per day: 14.14599398
mean anomaly at epoch: 110.9296°
orbit number at epoch: 7275

The dashed part of the orbit path shows where the satellite is in the earth's shadow,  

DLR